(347859) = 2002 RT132

Discovered at Essen on 2002-09-12 by Essen.

Orbit

Orbit type: Hungaria

Note: WebGL enabled browser required.

epoch2023-09-13.0
epoch JD2460200.5
perihelion date2023-05-04.42495
perihelion JD2460068.92495
argument of perihelion (°)128.28491
ascending node (°)203.08940
inclination (°)20.92549
eccentricity0.1111465
perihelion distance (AU)1.6793612
Tisserand w.r.t. Jupiter3.9
ΔV w.r.t. Earth (km/sec)10.3
semimajor axis (AU)1.8893566
mean anomaly (°)49.93516
mean daily motion (°/day)0.37951850
aphelion distance (AU)2.099
period (years)2.6
P-vector [x]0.85746573
P-vector [y]-0.50737343
P-vector [z]0.08558462
Q-vector [x]0.49511075
Q-vector [y]0.85886954
Q-vector [z]0.13118105
absolute magnitude17.96
phase slope0.15
uncertainty0
referenceMPEC 2024-A74
observations used269
oppositions10
arc length (days)7786
first opposition used2002
last opposition used2024
residual rms (arc-secs)0.72
perturbers coarse indicatorM-v
perturbers precise indicator003Ek
first observation date used2002-09-12.0
last observation date used2024-01-07.0
computer nameMPCLINUX
JD of orbit computation2456265.384031
perihelion JD uncertainty (days)3.4761E-04
argument of perihelion uncertainty (°)1.3256E-04
ascending node uncertainty (°)1.5643E-05
inclination uncertainty (°)1.5198E-05
eccentricity uncertainty 8.8104E-08
perihelion distance uncertainty (AU)1.6905E-07
Minimum Orbit Intersection Distances (in AU)
for orbit epoch: 2460200.5, reference: E2024-A74
Mercury1.32225
Venus0.9981
Earth0.72035
Mars0.32595
Jupiter3.18719
Saturn7.20155
Uranus16.4157
Neptune28.0492

Observations

270 total observations over interval: 2002 09 12.98049 – 2024 01 07.277175
These data are available for download (format description).

Date (UT) J2000 RA J2000 Dec Magn Location Ref
2002 09 12.98049 23 39 35.25 +23 18 05.3 18.5 R 636 – Essen MPS 61767
2002 09 12.98441 23 39 35.11 +23 17 59.6 19.3 R 636 – Essen MPS 61767
2002 09 12.98833 23 39 34.98 +23 17 55.0 19.4 R 636 – Essen MPS 61767
2002 09 12.99856 23 39 34.58 +23 17 40.0 19.0 R 636 – Essen MPS 61767
2002 09 13.03089 23 39 33.20 +23 16 56.5 18.6 R 113 – Volkssternwarte Drebach, Schoenbrunn MPS 61767
2002 09 13.03338 23 39 33.06 +23 16 52.1 19.0 R 113 – Volkssternwarte Drebach, Schoenbrunn MPS 61767
2002 09 13.03587 23 39 33.01 +23 16 48.8 19.2 R 113 – Volkssternwarte Drebach, Schoenbrunn MPS 61767
2002 09 13.03837 23 39 32.90 +23 16 46.0 18.3 R 113 – Volkssternwarte Drebach, Schoenbrunn MPS 61767
2002 09 13.86243 23 39 01.87 +22 57 49.3 18.7 R 636 – Essen MPS 61767
2002 09 13.86706 23 39 01.70 +22 57 41.0 18.5 R 636 – Essen MPS 61767
2002 09 14.28197 23 38 45.58 +22 48 03.8 18.8 R 699 – Lowell Observatory-LONEOS MPS 61767
2002 09 14.29698 23 38 44.96 +22 47 43.5   699 – Lowell Observatory-LONEOS MPS 61767
2002 09 14.31195 23 38 44.37 +22 47 21.4   699 – Lowell Observatory-LONEOS MPS 61767
2002 09 14.32690 23 38 43.66 +22 47 00.8   699 – Lowell Observatory-LONEOS MPS 61767
2002 10 04.13524 23 27 35.20 +13 33 30.1 19.3   644 – Palomar Mountain/NEAT MPS 63568
2002 10 04.14585 23 27 34.93 +13 33 11.0 19.5   644 – Palomar Mountain/NEAT MPS 63568
2002 10 04.15639 23 27 34.64 +13 32 51.8 19.1   644 – Palomar Mountain/NEAT MPS 63568
2002 10 05.24966 23 27 10.05 +12 59 53.5 19.4   704 – Lincoln Laboratory ETS, New Mexico MPS 63568
2002 10 05.26530 23 27 09.63 +12 59 25.0 19.7   704 – Lincoln Laboratory ETS, New Mexico MPS 63568
2002 10 05.28086 23 27 09.22 +12 58 57.2 19.9   704 – Lincoln Laboratory ETS, New Mexico MPS 63568
2002 10 05.29644 23 27 08.85 +12 58 28.5 19.8   704 – Lincoln Laboratory ETS, New Mexico MPS 63568
2002 10 05.31197 23 27 08.50 +12 58 00.5 19.5   704 – Lincoln Laboratory ETS, New Mexico MPS 63568
2002 10 07.17297 23 26 32.85 +12 02 04.7 18.6   704 – Lincoln Laboratory ETS, New Mexico MPS 67985
2002 10 07.18891 23 26 32.53 +12 01 36.0 19.0   704 – Lincoln Laboratory ETS, New Mexico MPS 67985
2002 10 07.20533 23 26 32.20 +12 01 07.1 19.0   704 – Lincoln Laboratory ETS, New Mexico MPS 67985
2002 10 07.26658 23 26 30.88 +11 59 15.7 18.8 R 699 – Lowell Observatory-LONEOS MPS 63568
2002 10 07.28759 23 26 30.49 +11 58 38.5   699 – Lowell Observatory-LONEOS MPS 63568
2002 10 07.30858 23 26 29.99 +11 58 00.6   699 – Lowell Observatory-LONEOS MPS 63568
2002 10 07.32959 23 26 29.53 +11 57 22.5   699 – Lowell Observatory-LONEOS MPS 63568
2002 10 10.16169 23 25 48.31 +10 33 16.4 19.3   704 – Lincoln Laboratory ETS, New Mexico MPS 63568
2002 10 10.17759 23 25 48.02 +10 32 47.6 19.4   704 – Lincoln Laboratory ETS, New Mexico MPS 63568
2002 10 10.19345 23 25 47.78 +10 32 19.3 19.6   704 – Lincoln Laboratory ETS, New Mexico MPS 63568
2002 10 10.20927 23 25 47.53 +10 31 52.0 19.4   704 – Lincoln Laboratory ETS, New Mexico MPS 63568
2002 10 11.16060 23 25 37.24 +10 04 00.5 18.9   704 – Lincoln Laboratory ETS, New Mexico MPS 63568
2002 10 11.16084 23 25 37.29 +10 04 00.4 18.9   704 – Lincoln Laboratory ETS, New Mexico MPS 63568
2002 10 11.17673 23 25 37.08 +10 03 32.2 19.2   704 – Lincoln Laboratory ETS, New Mexico MPS 63568
2002 10 11.17697 23 25 37.10 +10 03 31.7 20.4   704 – Lincoln Laboratory ETS, New Mexico MPS 63568
2002 10 11.19274 23 25 36.80 +10 03 04.1 19.1   704 – Lincoln Laboratory ETS, New Mexico MPS 63568
2002 10 11.19298 23 25 36.84 +10 03 04.5 19.0   704 – Lincoln Laboratory ETS, New Mexico MPS 63568
2002 10 11.20870 23 25 36.59 +10 02 36.4 19.4   704 – Lincoln Laboratory ETS, New Mexico MPS 63568
2002 10 11.20894 23 25 36.61 +10 02 37.0 19.1   704 – Lincoln Laboratory ETS, New Mexico MPS 63568
2002 10 11.22465 23 25 36.35 +10 02 08.0 19.1   704 – Lincoln Laboratory ETS, New Mexico MPS 63568
2002 10 11.22489 23 25 36.39 +10 02 09.3 19.5   704 – Lincoln Laboratory ETS, New Mexico MPS 63568
2002 11 06.86250 23 33 20.86 -00 16 56.1 19.7 R 113 – Volkssternwarte Drebach, Schoenbrunn MPS 65942
2002 11 06.87106 23 33 21.19 -00 17 04.4 19.6 R 113 – Volkssternwarte Drebach, Schoenbrunn MPS 65942
2002 11 06.87911 23 33 21.52 -00 17 12.3 19.7 R 113 – Volkssternwarte Drebach, Schoenbrunn MPS 65942
2002 11 08.191150 23 34 20.469 -00 37 47.76 20.19 V 645 – Apache Point-Sloan Digital Sky Survey MPS 80117
2002 11 08.194622 23 34 20.618 -00 37 50.87 20.89   645 – Apache Point-Sloan Digital Sky Survey MPS 80117
2004 04 21.32659 12 45 35.10 -05 51 07.1 19.9   704 – Lincoln Laboratory ETS, New Mexico MPS 444846
2004 04 21.34983 12 45 33.84 -05 50 39.0 19.6   704 – Lincoln Laboratory ETS, New Mexico MPS 444846
2004 04 21.36115 12 45 33.28 -05 50 25.4 19.6   704 – Lincoln Laboratory ETS, New Mexico MPS 444846
2010 09 05.46362 03 52 25.71 +18 43 23.3 20.4 V G96 – Mt. Lemmon Survey MPS 362697
2010 09 05.46937 03 52 26.14 +18 43 19.9 20.4 V G96 – Mt. Lemmon Survey MPS 362697
2010 09 05.47510 03 52 26.54 +18 43 16.5 20.4 V G96 – Mt. Lemmon Survey MPS 362697
2010 09 05.48094 03 52 27.04 +18 43 12.6 20.1 V G96 – Mt. Lemmon Survey MPS 362697
2010 10 12.42728 04 17 07.40 +08 47 11.0 19.3 V 703 – Catalina Sky Survey MPS 362697
2010 10 12.43426 04 17 07.29 +08 47 02.4 19.9 V 703 – Catalina Sky Survey MPS 362697
2010 10 12.44129 04 17 07.18 +08 46 53.6 19.5 V 703 – Catalina Sky Survey MPS 362697
2010 10 12.44822 04 17 07.18 +08 46 43.6 19.8 V 703 – Catalina Sky Survey MPS 362697
2010 10 30.41391 04 08 50.17 +02 00 34.5 19.8 V 703 – Catalina Sky Survey MPS 362697
2010 10 30.42096 04 08 49.84 +02 00 25.2 20.5 V 703 – Catalina Sky Survey MPS 362697
2010 10 30.42796 04 08 49.56 +02 00 16.3 20.0 V 703 – Catalina Sky Survey MPS 362697
2010 10 30.43497 04 08 49.05 +02 00 06.6 19.6 V 703 – Catalina Sky Survey MPS 362697
2010 11 07.39361 04 01 31.80 -00 55 47.5 19.4 V 703 – Catalina Sky Survey MPS 362697
2010 11 07.40048 04 01 31.29 -00 55 55.5 20.0 V 703 – Catalina Sky Survey MPS 362697
2010 11 07.41043 04 01 30.64 -00 56 08.9 19.7 V 703 – Catalina Sky Survey MPS 362697
2010 11 07.41870 04 01 30.21 -00 56 20.1 19.4 V 703 – Catalina Sky Survey MPS 362697
2010 12 10.24601 03 28 42.31 -08 20 52.0 20.1 V 703 – Catalina Sky Survey MPS 362697
2010 12 10.25169 03 28 42.02 -08 20 53.1 20.4 V 703 – Catalina Sky Survey MPS 362697
2010 12 10.25748 03 28 41.66 -08 20 54.9 19.9 V 703 – Catalina Sky Survey MPS 362697
2010 12 10.26318 03 28 41.37 -08 20 57.4 20.7 V 703 – Catalina Sky Survey MPS 362697
2012 03 16.50326 16 09 52.45 -14 16 18.0 20.6 V G96 – Mt. Lemmon Survey MPS 416112
2012 03 16.50846 16 09 52.70 -14 16 14.9 20.1 V G96 – Mt. Lemmon Survey MPS 416112
2012 03 16.51369 16 09 52.88 -14 16 11.2 21.1 V G96 – Mt. Lemmon Survey MPS 416112
2012 03 16.51891 16 09 53.24 -14 16 06.7 20.9 V G96 – Mt. Lemmon Survey MPS 416112
2012 04 18.45422 16 21 54.53 -05 08 22.6 19.6 V 691 – Steward Observatory, Kitt Peak-Spacewatch MPS 423679
2012 04 18.47197 16 21 54.18 -05 08 03.6 20.4 V 691 – Steward Observatory, Kitt Peak-Spacewatch MPS 423679
2012 04 18.48974 16 21 53.89 -05 07 41.4 20.1 V 691 – Steward Observatory, Kitt Peak-Spacewatch MPS 423679
2012 04 22.42188 16 20 41.63 -03 43 45.2 20.2 V 691 – Steward Observatory, Kitt Peak-Spacewatch MPS 421858
2012 04 22.43963 16 20 41.17 -03 43 22.3 20.1 V 691 – Steward Observatory, Kitt Peak-Spacewatch MPS 421858
2012 04 22.45739 16 20 40.71 -03 42 58.9 20.3 V 691 – Steward Observatory, Kitt Peak-Spacewatch MPS 421858
2012 05 01.43719 16 15 50.60 -00 25 05.3 20.0 V 691 – Steward Observatory, Kitt Peak-Spacewatch MPS 422811
2012 05 01.45491 16 15 49.82 -00 24 41.8 20.3 V 691 – Steward Observatory, Kitt Peak-Spacewatch MPS 422811
2012 05 01.47265 16 15 49.04 -00 24 18.2 20.4 V 691 – Steward Observatory, Kitt Peak-Spacewatch MPS 422811
2012 05 16.20004 16 03 00.67 +04 48 34.3 20.3 V 691 – Steward Observatory, Kitt Peak-Spacewatch MPS 423923
2012 05 16.21780 16 02 59.56 +04 48 55.5 20.2 V 691 – Steward Observatory, Kitt Peak-Spacewatch MPS 423923
2012 05 16.23557 16 02 58.42 +04 49 16.4 20.0 V 691 – Steward Observatory, Kitt Peak-Spacewatch MPS 423923
2015 09 07.18476 00 12 43.73 +25 26 21.3 19.8 R H15 – ISON-NM Observatory, Mayhill MPS 626554
